Location: Albany
(35.0000°S, 118.0000°E)
Time: 15:48:35
(UTC-04:00)

Cosmos 1346 Rocket - Visible Passes

Search period start: 23 August 2014 00:00
Search period end: 02 September 2014 00:00
Orbit: 532 x 570 km, 81.2° (Epoch: 22 August)

Date Brightness Start Highest point End Pass type
(mag) Time Alt. Az. Time Alt. Az. Time Alt. Az.
23 Aug 5.7 15:58:24 10° NE 16:00:58 16° E 16:03:32 10° SE visible
23 Aug 3.7 17:33:41 10° NW 17:37:16 29° WSW 17:40:52 10° SSW visible
24 Aug 5.5 15:55:59 17° ENE 15:56:49 18° E 15:59:40 10° SE visible
24 Aug 3.8 17:31:52 22° WNW 17:33:11 26° WSW 17:36:38 10° SSW visible
25 Aug 5.5 15:53:38 19° ESE 15:53:38 19° ESE 15:55:44 10° SE visible
25 Aug 4.0 17:29:27 23° WSW 17:29:27 23° WSW 17:32:23 10° SSW visible
26 Aug 5.6 15:50:43 15° SE 15:50:43 15° SE 15:51:47 10° SE visible
26 Aug 4.5 17:26:31 17° SW 17:26:31 17° SW 17:28:06 10° SSW visible
27 Aug 5.9 15:47:31 12° SE 15:47:31 12° SE 15:47:48 10° SE visible
27 Aug 5.0 17:23:18 12° SW 17:23:18 12° SW 17:23:47 10° SSW visible
